| time (UTC) | temp F | wind direction | speed knots | gust knots | rain 1hr in | rain 24hr in | rain mn in | humidity % | barometer mb |
| 20260904172521 | 88 | 96 | 3.5 | 7.8 | 0.00 | 0.00 | 0.00 | 51 | 1017.6 |
| 20260904172016 | 87 | 113 | 2.6 | 7.8 | 0.00 | 0.00 | 0.00 | 51 | 1017.8 |
| 20260904171514 | 88 | 273 | 2.6 | 6.1 | 0.00 | 0.00 | 0.00 | 53 | 1017.7 |
| 20260904171029 | 88 | 193 | 1.7 | 4.3 | 0.00 | 0.00 | 0.00 | 52 | 1017.8 |
| 20260904170525 | 87 | 154 | 1.7 | 7.8 | 0.00 | 0.00 | 0.00 | 52 | 1018.0 |
| 20260904170032 | 87 | 126 | 3.5 | 7.8 | 0.00 | 0.00 | 0.00 | 52 | 1018.0 |
| 20260904165514 | 87 | 214 | 3.5 | 7.8 | 0.00 | 0.00 | 0.00 | 53 | 1018.0 |
| 20260904165030 | 88 | 220 | 1.7 | 7.8 | 0.00 | 0.00 | 0.00 | 53 | 1017.9 |
| 20260904164525 | 86 | 169 | 3.5 | 7.8 | 0.00 | 0.00 | 0.00 | 55 | 1017.8 |
| 20260904164020 | 86 | 213 | 3.5 | 7.8 | 0.00 | 0.00 | 0.00 | 56 | 1017.8 |
| 20260904163519 | 86 | 148 | 3.5 | 10.4 | 0.00 | 0.00 | 0.00 | 56 | 1017.8 |
| 20260904163014 | 85 | 133 | 5.2 | 10.4 | 0.00 | 0.00 | 0.00 | 56 | 1017.8 |
| 20260904162529 | 85 | 113 | 2.6 | 7.8 | 0.00 | 0.00 | 0.00 | 57 | 1017.8 |
| 20260904162024 | 85 | 91 | 4.3 | 7.8 | 0.00 | 0.00 | 0.00 | 58 | 1017.7 |
| 20260904161520 | 85 | 134 | 3.5 | 10.4 | 0.00 | 0.00 | 0.00 | 58 | 1017.8 |
| 20260904161016 | 85 | 119 | 4.3 | 10.4 | 0.00 | 0.00 | 0.00 | 58 | 1017.6 |
| 20260904160531 | 84 | 85 | 3.5 | 7.0 | 0.00 | 0.00 | 0.00 | 61 | 1017.7 |
| 20260904160044 | 83 | 77 | 3.5 | 7.8 | 0.00 | 0.00 | 0.00 | 62 | 1017.7 |
| 20260904155525 | 83 | 111 | 2.6 | 8.7 | 0.00 | 0.00 | 0.00 | 63 | 1017.6 |
| 20260904155021 | 83 | 126 | 4.3 | 8.7 | 0.00 | 0.00 | 0.00 | 63 | 1017.7 |
| 20260904154518 | 82 | 112 | 3.5 | 8.7 | 0.00 | 0.00 | 0.00 | 64 | 1017.6 |
| 20260904154013 | 82 | 102 | 3.5 | 7.8 | 0.00 | 0.00 | 0.00 | 65 | 1017.6 |
| 20260904153528 | 82 | 122 | 4.3 | 7.8 | 0.00 | 0.00 | 0.00 | 64 | 1017.5 |
| 20260904153024 | 81 | 108 | 2.6 | 7.8 | 0.00 | 0.00 | 0.00 | 66 | 1017.5 |
| 20260904152523 | 81 | 107 | 4.3 | 8.7 | 0.00 | 0.00 | 0.00 | 66 | 1017.5 |
| 20260904152017 | 81 | 127 | 5.2 | 9.6 | 0.00 | 0.00 | 0.00 | 65 | 1017.7 |
| 20260904151513 | 82 | 124 | 4.3 | 9.6 | 0.00 | 0.00 | 0.00 | 65 | 1017.6 |
| 20260904151030 | 81 | 101 | 4.3 | 9.6 | 0.00 | 0.00 | 0.00 | 65 | 1017.5 |
| 20260904150525 | 81 | 90 | 3.5 | 7.8 | 0.00 | 0.00 | 0.00 | 66 | 1017.5 |
| 20260904150032 | 81 | 121 | 2.6 | 7.8 | 0.00 | 0.00 | 0.00 | 66 | 1017.5 |
| 20260904145513 | 81 | 111 | 5.2 | 7.8 | 0.00 | 0.00 | 0.00 | 66 | 1017.5 |
| 20260904145014 | 80 | 119 | 4.3 | 8.7 | 0.00 | 0.00 | 0.00 | 67 | 1017.5 |
| 20260904144528 | 80 | 130 | 4.3 | 8.7 | 0.00 | 0.00 | 0.00 | 67 | 1017.5 |
| 20260904144023 | 80 | 117 | 4.3 | 7.8 | 0.00 | 0.00 | 0.00 | 67 | 1017.5 |
| 20260904143519 | 80 | 111 | 3.5 | 7.8 | 0.00 | 0.00 | 0.00 | 68 | 1017.4 |
| 20260904143014 | 80 | 110 | 4.3 | 7.8 | 0.00 | 0.00 | 0.00 | 68 | 1017.3 |
| 20260904142530 | 80 | 146 | 2.6 | 5.2 | 0.00 | 0.00 | 0.00 | 69 | 1017.3 |
| 20260904142026 | 80 | 131 | 3.5 | 5.2 | 0.00 | 0.00 | 0.00 | 68 | 1017.4 |
| 20260904141522 | 80 | 144 | 2.6 | 5.2 | 0.00 | 0.00 | 0.00 | 68 | 1017.3 |
| 20260904141022 | 79 | 136 | 2.6 | 5.2 | 0.00 | 0.00 | 0.00 | 69 | 1017.3 |
| 20260904140517 | 79 | 159 | 1.7 | 3.5 | 0.00 | 0.00 | 0.00 | 69 | 1017.2 |
| 20260904140045 | 79 | 159 | 1.7 | 4.3 | 0.00 | 0.00 | 0.00 | 70 | 1017.1 |
| 20260904135526 | 78 | 159 | 2.6 | 4.3 | 0.00 | 0.00 | 0.00 | 70 | 1017.1 |
| 20260904135021 | 78 | 159 | 1.7 | 4.3 | 0.00 | 0.00 | 0.00 | 71 | 1017.0 |
| 20260904134516 | 78 | 164 | 1.7 | 3.5 | 0.00 | 0.00 | 0.00 | 71 | 1016.9 |
| 20260904134031 | 77 | 164 | 1.7 | 3.5 | 0.00 | 0.00 | 0.00 | 71 | 1016.7 |
| 20260904133530 | 77 | 164 | 0.9 | 2.6 | 0.00 | 0.00 | 0.00 | 71 | 1016.7 |
| 20260904133024 | 77 | 180 | 1.7 | 2.6 | 0.00 | 0.00 | 0.00 | 72 | 1016.8 |
| 20260904132519 | 77 | 169 | 0.9 | 2.6 | 0.00 | 0.00 | 0.00 | 72 | 1016.7 |
| 20260904132015 | 77 | 169 | 0.9 | 2.6 | 0.00 | 0.00 | 0.00 | 72 | 1016.6 |
| 20260904131530 | 76 | 169 | 0.9 | 3.5 | 0.00 | 0.00 | 0.00 | 73 | 1016.5 |
| 20260904131026 | 76 | 169 | 1.7 | 3.5 | 0.00 | 0.00 | 0.00 | 73 | 1016.5 |
| 20260904130521 | 76 | 176 | 0.9 | 3.5 | 0.00 | 0.00 | 0.00 | 73 | 1016.4 |
| 20260904130033 | 76 | 177 | 1.7 | 3.5 | 0.00 | 0.00 | 0.00 | 73 | 1016.3 |
| 20260904125514 | 76 | 173 | 0.9 | 3.5 | 0.00 | 0.00 | 0.00 | 72 | 1016.3 |
| 20260904125029 | 77 | 169 | 1.7 | 3.5 | 0.00 | 0.00 | 0.00 | 72 | 1016.2 |
| 20260904124524 | 77 | 177 | 1.7 | 3.5 | 0.00 | 0.00 | 0.00 | 72 | 1016.1 |
| 20260904124019 | 77 | 169 | 1.7 | 4.3 | 0.00 | 0.00 | 0.00 | 72 | 1016.0 |
| 20260904123516 | 77 | 169 | 1.7 | 4.3 | 0.00 | 0.00 | 0.00 | 71 | 1015.9 |
| 20260904123030 | 77 | 129 | 2.6 | 4.3 | 0.00 | 0.00 | 0.00 | 71 | 1015.9 |
| 20260904122525 | 77 | 131 | 1.7 | 3.5 | 0.00 | 0.00 | 0.00 | 71 | 1015.9 |
| 20260904122024 | 77 | 133 | 2.6 | 5.2 | 0.00 | 0.00 | 0.00 | 71 | 1015.8 |
| 20260904121520 | 77 | 133 | 2.6 | 5.2 | 0.00 | 0.00 | 0.00 | 71 | 1015.8 |
| 20260904121016 | 77 | 139 | 1.7 | 5.2 | 0.00 | 0.00 | 0.00 | 71 | 1015.8 |
| 20260904120531 | 78 | 141 | 1.7 | 5.2 | 0.00 | 0.00 | 0.00 | 71 | 1015.8 |
| 20260904120038 | 77 | 150 | 1.7 | 4.3 | 0.00 | 0.00 | 0.00 | 71 | 1015.7 |
| 20260904115518 | 77 | 134 | 1.7 | 5.2 | 0.00 | 0.00 | 0.00 | 71 | 1015.8 |
| 20260904115013 | 78 | 135 | 1.7 | 5.2 | 0.00 | 0.00 | 0.00 | 70 | 1015.8 |
| 20260904114513 | 78 | 135 | 2.6 | 7.8 | 0.00 | 0.00 | 0.00 | 69 | 1015.8 |
| 20260904114028 | 78 | 135 | 2.6 | 7.8 | 0.00 | 0.00 | 0.00 | 69 | 1015.7 |
| 20260904113524 | 78 | 125 | 3.5 | 7.0 | 0.00 | 0.00 | 0.00 | 68 | 1015.7 |
| 20260904113019 | 79 | 140 | 3.5 | 7.8 | 0.00 | 0.00 | 0.00 | 68 | 1015.7 |
| 20260904112514 | 79 | 144 | 4.3 | 7.8 | 0.00 | 0.00 | 0.00 | 68 | 1015.6 |
| 20260904112029 | 79 | 135 | 4.3 | 7.8 | 0.00 | 0.00 | 0.00 | 67 | 1015.5 |
| 20260904111524 | 79 | 106 | 4.3 | 7.8 | 0.00 | 0.00 | 0.00 | 67 | 1015.5 |
| 20260904111023 | 79 | 99 | 3.5 | 7.0 | 0.00 | 0.00 | 0.00 | 67 | 1015.5 |
| 20260904110518 | 79 | 117 | 4.3 | 7.0 | 0.00 | 0.00 | 0.00 | 67 | 1015.5 |
| 20260904110045 | 79 | 110 | 2.6 | 7.8 | 0.00 | 0.00 | 0.00 | 67 | 1015.5 |
| 20260904105525 | 79 | 115 | 3.5 | 7.8 | 0.00 | 0.00 | 0.00 | 67 | 1015.5 |
| 20260904105020 | 79 | 131 | 2.6 | 7.8 | 0.00 | 0.00 | 0.00 | 66 | 1015.6 |
| 20260904104516 | 79 | 111 | 3.5 | 8.7 | 0.00 | 0.00 | 0.00 | 66 | 1015.5 |
| 20260904104012 | 80 | 139 | 5.2 | 8.7 | 0.00 | 0.00 | 0.00 | 66 | 1015.5 |
| 20260904103527 | 80 | 122 | 3.5 | 8.7 | 0.00 | 0.00 | 0.00 | 66 | 1015.4 |
| 20260904103027 | 79 | 129 | 4.3 | 8.7 | 0.00 | 0.00 | 0.00 | 66 | 1015.6 |
| 20260904102522 | 79 | 103 | 4.3 | 7.8 | 0.00 | 0.00 | 0.00 | 66 | 1015.5 |
| 20260904102016 | 79 | 115 | 2.6 | 5.2 | 0.00 | 0.00 | 0.00 | 66 | 1015.6 |
| 20260904101531 | 80 | 122 | 3.5 | 5.2 | 0.00 | 0.00 | 0.00 | 66 | 1015.5 |
| 20260904101025 | 79 | 129 | 3.5 | 5.2 | 0.00 | 0.00 | 0.00 | 66 | 1015.4 |
| 20260904100518 | 79 | 144 | 1.7 | 4.3 | 0.00 | 0.00 | 0.00 | 67 | 1015.4 |
| 20260904100044 | 79 | 150 | 1.7 | 4.3 | 0.00 | 0.00 | 0.00 | 67 | 1015.4 |
| 20260904095528 | 79 | 154 | 0.9 | 5.2 | 0.00 | 0.00 | 0.00 | 68 | 1015.4 |
| 20260904095022 | 79 | 144 | 2.6 | 5.2 | 0.00 | 0.00 | 0.00 | 68 | 1015.3 |
| 20260904094516 | 79 | 153 | 1.7 | 4.3 | 0.00 | 0.00 | 0.00 | 68 | 1015.4 |
| 20260904094030 | 79 | 129 | 0.9 | 2.6 | 0.00 | 0.00 | 0.00 | 68 | 1015.3 |
| 20260904093524 | 79 | 130 | 0.9 | 2.6 | 0.00 | 0.00 | 0.00 | 68 | 1015.3 |
| 20260904093017 | 79 | 130 | 1.7 | 3.5 | 0.00 | 0.00 | 0.00 | 67 | 1015.2 |
| 20260904092531 | 79 | 130 | 1.7 | 4.3 | 0.00 | 0.00 | 0.00 | 67 | 1015.2 |
| 20260904092025 | 79 | 131 | 2.6 | 4.3 | 0.00 | 0.00 | 0.00 | 67 | 1015.3 |
| 20260904091524 | 79 | 134 | 2.6 | 4.3 | 0.00 | 0.00 | 0.00 | 67 | 1015.3 |
| 20260904091019 | 79 | 136 | 1.7 | 5.2 | 0.00 | 0.00 | 0.00 | 67 | 1015.2 |
| 20260904090513 | 79 | 137 | 2.6 | 5.2 | 0.00 | 0.00 | 0.00 | 67 | 1015.2 |
| 20260904090040 | 79 | 137 | 2.6 | 5.2 | 0.00 | 0.00 | 0.00 | 67 | 1015.3 |
| 20260904085520 | 79 | 129 | 2.6 | 5.2 | 0.00 | 0.00 | 0.00 | 67 | 1015.2 |
| 20260904085015 | 79 | 121 | 2.6 | 4.3 | 0.00 | 0.00 | 0.00 | 66 | 1015.2 |
| 20260904084530 | 80 | 117 | 2.6 | 4.3 | 0.00 | 0.00 | 0.00 | 66 | 1015.3 |
| 20260904084029 | 80 | 115 | 2.6 | 5.2 | 0.00 | 0.00 | 0.00 | 66 | 1015.2 |
| 20260904083524 | 80 | 110 | 2.6 | 7.0 | 0.00 | 0.00 | 0.00 | 66 | 1015.3 |
| 20260904083019 | 80 | 106 | 3.5 | 7.0 | 0.00 | 0.00 | 0.00 | 66 | 1015.2 |
| 20260904082513 | 80 | 113 | 3.5 | 5.2 | 0.00 | 0.00 | 0.00 | 66 | 1015.3 |
| 20260904082028 | 80 | 125 | 2.6 | 5.2 | 0.00 | 0.00 | 0.00 | 66 | 1015.4 |
| 20260904081523 | 80 | 123 | 1.7 | 5.2 | 0.00 | 0.00 | 0.00 | 66 | 1015.4 |
| 20260904081018 | 80 | 123 | 2.6 | 5.2 | 0.00 | 0.00 | 0.00 | 66 | 1015.4 |
| 20260904080517 | 80 | 110 | 0.9 | 2.6 | 0.00 | 0.00 | 0.00 | 66 | 1015.4 |
| 20260904080045 | 80 | 110 | 0.9 | 3.5 | 0.00 | 0.00 | 0.00 | 66 | 1015.4 |
| 20260904075525 | 80 | 110 | 1.7 | 3.5 | 0.00 | 0.00 | 0.00 | 66 | 1015.4 |
| 20260904075019 | 80 | 110 | 2.6 | 4.3 | 0.00 | 0.00 | 0.00 | 65 | 1015.4 |
| 20260904074513 | 80 | 110 | 2.6 | 4.3 | 0.00 | 0.00 | 0.00 | 65 | 1015.4 |
| 20260904074027 | 80 | 110 | 2.6 | 4.3 | 0.00 | 0.00 | 0.00 | 65 | 1015.4 |
| 20260904073521 | 80 | 110 | 1.7 | 5.2 | 0.00 | 0.00 | 0.00 | 65 | 1015.5 |
| 20260904073015 | 80 | 137 | 2.6 | 4.3 | 0.00 | 0.00 | 0.00 | 64 | 1015.5 |
| 20260904072514 | 81 | 138 | 2.6 | 7.0 | 0.00 | 0.00 | 0.00 | 64 | 1015.5 |
| 20260904072028 | 81 | 140 | 2.6 | 7.0 | 0.00 | 0.00 | 0.00 | 64 | 1015.6 |
| 20260904071522 | 81 | 100 | 2.6 | 4.3 | 0.00 | 0.00 | 0.00 | 64 | 1015.7 |
| 20260904071016 | 81 | 98 | 2.6 | 4.3 | 0.00 | 0.00 | 0.00 | 63 | 1015.7 |
| 20260904070511 | 81 | 97 | 2.6 | 6.1 | 0.00 | 0.00 | 0.00 | 63 | 1015.8 |
| 20260904070038 | 81 | 96 | 2.6 | 6.1 | 0.00 | 0.00 | 0.00 | 63 | 1015.8 |
| 20260904065519 | 81 | 90 | 3.5 | 6.1 | 0.00 | 0.00 | 0.00 | 63 | 1015.8 |
| 20260904065017 | 81 | 92 | 1.7 | 7.8 | 0.00 | 0.00 | 0.00 | 63 | 1015.6 |
| 20260904064511 | 81 | 93 | 2.6 | 7.8 | 0.00 | 0.00 | 0.00 | 63 | 1015.8 |
| 20260904064026 | 81 | 98 | 3.5 | 6.1 | 0.00 | 0.00 | 0.00 | 63 | 1015.7 |
| 20260904063520 | 81 | 113 | 2.6 | 4.3 | 0.00 | 0.00 | 0.00 | 62 | 1015.6 |
| 20260904063015 | 81 | 115 | 2.6 | 3.5 | 0.00 | 0.00 | 0.00 | 61 | 1015.7 |
| 20260904062530 | 81 | 116 | 2.6 | 5.2 | 0.00 | 0.00 | 0.00 | 61 | 1015.7 |
| 20260904062025 | 81 | 117 | 2.6 | 4.3 | 0.00 | 0.00 | 0.00 | 61 | 1015.6 |
| 20260904061519 | 82 | 118 | 2.6 | 4.3 | 0.00 | 0.00 | 0.00 | 61 | 1015.6 |
| 20260904061018 | 82 | 120 | 2.6 | 3.5 | 0.00 | 0.00 | 0.00 | 60 | 1015.7 |
| 20260904060512 | 82 | 120 | 1.7 | 4.3 | 0.00 | 0.00 | 0.00 | 60 | 1015.5 |
| 20260904060038 | 82 | 120 | 2.6 | 4.3 | 0.00 | 0.00 | 0.00 | 60 | 1015.5 |
| 20260904055518 | 82 | 121 | 2.6 | 5.2 | 0.00 | 0.00 | 0.00 | 60 | 1015.5 |
| 20260904055012 | 82 | 121 | 2.6 | 5.2 | 0.00 | 0.00 | 0.00 | 60 | 1015.5 |
| 20260904054526 | 82 | 129 | 2.6 | 5.2 | 0.00 | 0.00 | 0.00 | 59 | 1015.4 |
| 20260904054019 | 82 | 137 | 1.7 | 5.2 | 0.00 | 0.00 | 0.00 | 59 | 1015.5 |
| 20260904053517 | 82 | 150 | 2.6 | 5.2 | 0.00 | 0.00 | 0.00 | 59 | 1015.4 |
| 20260904053012 | 82 | 154 | 2.6 | 7.0 | 0.00 | 0.00 | 0.00 | 58 | 1015.4 |
| 20260904052526 | 83 | 128 | 4.3 | 7.8 | 0.00 | 0.00 | 0.00 | 58 | 1015.4 |
| 20260904052020 | 83 | 122 | 3.5 | 7.8 | 0.00 | 0.00 | 0.00 | 57 | 1015.4 |
| 20260904051514 | 83 | 115 | 4.3 | 7.8 | 0.00 | 0.00 | 0.00 | 57 | 1015.3 |
| 20260904051029 | 83 | 124 | 4.3 | 7.8 | 0.00 | 0.00 | 0.00 | 57 | 1015.3 |
| 20260904050524 | 84 | 121 | 4.3 | 7.0 | 0.00 | 0.00 | 0.00 | 57 | 1015.4 |
| 20260904050032 | 84 | 119 | 4.3 | 7.8 | 0.00 | 0.00 | 0.00 | 56 | 1015.4 |
| 20260904045516 | 84 | 90 | 3.5 | 7.8 | 0.00 | 0.00 | 0.00 | 56 | 1015.5 |
| 20260904045030 | 84 | 101 | 2.6 | 6.1 | 0.00 | 0.00 | 0.00 | 56 | 1015.5 |
| 20260904044524 | 84 | 80 | 2.6 | 8.7 | 0.00 | 0.00 | 0.00 | 57 | 1015.5 |
| 20260904044018 | 84 | 133 | 6.1 | 8.7 | 0.00 | 0.00 | 0.00 | 56 | 1015.6 |
| 20260904043513 | 84 | 95 | 2.6 | 7.8 | 0.00 | 0.00 | 0.00 | 57 | 1015.8 |
| 20260904043019 | 84 | 116 | 4.3 | 7.8 | 0.00 | 0.00 | 0.00 | 56 | 1015.5 |
| 20260904042513 | 84 | 96 | 4.3 | 7.8 | 0.00 | 0.00 | 0.00 | 56 | 1015.5 |
| 20260904042012 | 84 | 103 | 4.3 | 7.0 | 0.00 | 0.00 | 0.00 | 56 | 1015.6 |
| 20260904041526 | 84 | 98 | 3.5 | 7.0 | 0.00 | 0.00 | 0.00 | 56 | 1015.6 |
| 20260904041020 | 84 | 97 | 4.3 | 7.8 | 0.00 | 0.00 | 0.00 | 57 | 1015.6 |
| 20260904040515 | 84 | 90 | 3.5 | 7.0 | 0.00 | 0.00 | 0.00 | 58 | 1015.4 |
| 20260904040040 | 84 | 86 | 3.5 | 8.7 | 0.00 | 0.00 | 0.00 | 58 | 1015.5 |
| 20260904035524 | 84 | 108 | 5.2 | 8.7 | 0.00 | 0.00 | 0.00 | 58 | 1015.4 |
| 20260904035018 | 84 | 105 | 3.5 | 8.7 | 0.00 | 0.00 | 0.00 | 58 | 1015.3 |
| 20260904034513 | 84 | 113 | 4.3 | 7.8 | 0.00 | 0.00 | 0.00 | 58 | 1015.3 |
| 20260904034012 | 84 | 113 | 4.3 | 7.8 | 0.00 | 0.00 | 0.00 | 58 | 1015.2 |
| 20260904033527 | 84 | 91 | 2.6 | 7.8 | 0.00 | 0.00 | 0.00 | 57 | 1015.1 |
| 20260904033024 | 84 | 83 | 4.3 | 7.8 | 0.00 | 0.00 | 0.00 | 57 | 1015.1 |
| 20260904032019 | 84 | 82 | 3.5 | 6.1 | 0.00 | 0.00 | 0.00 | 56 | 1015.0 |
| 20260904031515 | 84 | 92 | 3.5 | 6.1 | 0.00 | 0.00 | 0.00 | 56 | 1014.8 |
| 20260904031031 | 85 | 129 | 1.7 | 5.2 | 0.00 | 0.00 | 0.00 | 56 | 1014.6 |
| 20260904030527 | 85 | 134 | 0.9 | 7.0 | 0.00 | 0.00 | 0.00 | 56 | 1014.5 |
| 20260904030040 | 85 | 111 | 2.6 | 7.0 | 0.00 | 0.00 | 0.00 | 57 | 1014.5 |
| 20260904025521 | 85 | 116 | 4.3 | 7.8 | 0.00 | 0.00 | 0.00 | 57 | 1014.5 |
| 20260904025017 | 85 | 175 | 3.5 | 7.8 | 0.00 | 0.00 | 0.00 | 56 | 1014.6 |
| 20260904024533 | 85 | 140 | 2.6 | 7.0 | 0.00 | 0.00 | 0.00 | 57 | 1014.4 |
| 20260904024029 | 85 | 188 | 3.5 | 9.6 | 0.00 | 0.00 | 0.00 | 56 | 1014.3 |
| 20260904023525 | 85 | 107 | 4.3 | 8.7 | 0.00 | 0.00 | 0.00 | 56 | 1014.2 |
| 20260904023021 | 85 | 140 | 3.5 | 7.8 | 0.00 | 0.00 | 0.00 | 55 | 1014.1 |
| 20260904022522 | 85 | 110 | 4.3 | 7.8 | 0.00 | 0.00 | 0.00 | 55 | 1014.1 |
| 20260904022018 | 85 | 117 | 5.2 | 7.8 | 0.00 | 0.00 | 0.00 | 54 | 1014.2 |
| 20260904021514 | 85 | 128 | 3.5 | 7.0 | 0.00 | 0.00 | 0.00 | 54 | 1014.1 |
| 20260904021031 | 86 | 130 | 3.5 | 7.0 | 0.00 | 0.00 | 0.00 | 54 | 1014.0 |
| 20260904020526 | 86 | 119 | 4.3 | 7.8 | 0.00 | 0.00 | 0.00 | 53 | 1014.0 |
| 20260904020033 | 86 | 151 | 2.6 | 7.8 | 0.00 | 0.00 | 0.00 | 53 | 1014.0 |
| 20260904015515 | 86 | 138 | 3.5 | 7.8 | 0.00 | 0.00 | 0.00 | 53 | 1013.9 |
| 20260904015015 | 86 | 142 | 3.5 | 7.8 | 0.00 | 0.00 | 0.00 | 52 | 1013.8 |
| 20260904014531 | 86 | 201 | 3.5 | 9.6 | 0.00 | 0.00 | 0.00 | 50 | 1013.6 |
| 20260904014027 | 86 | 133 | 3.5 | 7.8 | 0.00 | 0.00 | 0.00 | 50 | 1013.5 |
| 20260904013523 | 86 | 149 | 3.5 | 11.3 | 0.00 | 0.00 | 0.00 | 51 | 1013.6 |
| 20260904013019 | 86 | 181 | 4.3 | 13.9 | 0.00 | 0.00 | 0.00 | 51 | 1013.5 |
| 20260904012515 | 87 | 123 | 7.8 | 13.9 | 0.00 | 0.00 | 0.00 | 50 | 1013.6 |
| 20260904012031 | 88 | 141 | 5.2 | 11.3 | 0.00 | 0.00 | 0.00 | 46 | 1013.6 |
| 20260904011531 | 88 | 190 | 4.3 | 8.7 | 0.00 | 0.00 | 0.00 | 46 | 1013.4 |
| 20260904011027 | 89 | 159 | 2.6 | 8.7 | 0.00 | 0.00 | 0.00 | 46 | 1013.3 |
| 20260904010523 | 89 | 148 | 3.5 | 7.8 | 0.00 | 0.00 | 0.00 | 46 | 1013.2 |
| 20260904010030 | 89 | 174 | 3.5 | 7.8 | 0.00 | 0.00 | 0.00 | 45 | 1013.3 |
| 20260904005532 | 89 | 217 | 2.6 | 6.1 | 0.00 | 0.00 | 0.00 | 46 | 1013.3 |
| 20260904005028 | 89 | 235 | 3.5 | 6.1 | 0.00 | 0.00 | 0.00 | 46 | 1013.4 |
| 20260904004524 | 89 | 155 | 3.5 | 7.8 | 0.00 | 0.00 | 0.00 | 46 | 1013.4 |
| 20260904004024 | 89 | 135 | 4.3 | 9.6 | 0.00 | 0.00 | 0.00 | 47 | 1013.5 |
| 20260904003520 | 90 | 138 | 2.6 | 9.6 | 0.00 | 0.00 | 0.00 | 47 | 1013.4 |
| 20260904003016 | 90 | 196 | 3.5 | 8.7 | 0.00 | 0.00 | 0.00 | 47 | 1013.5 |
| 20260904002531 | 90 | 204 | 3.5 | 12.2 | 0.00 | 0.00 | 0.00 | 46 | 1013.4 |
| 20260904002027 | 90 | 215 | 6.1 | 12.2 | 0.00 | 0.00 | 0.00 | 46 | 1013.3 |
| 20260904001523 | 91 | 185 | 4.3 | 9.6 | 0.00 | 0.00 | 0.00 | 45 | 1013.2 |
| 20260904001019 | 91 | 135 | 3.5 | 9.6 | 0.00 | 0.00 | 0.00 | 44 | 1013.2 |
| 20260904000519 | 91 | 134 | 5.2 | 9.6 | 0.00 | 0.00 | 0.00 | 42 | 1013.2 |
| 20260904000028 | 92 | 110 | 3.5 | 9.6 | 0.00 | 0.00 | 0.00 | 43 | 1013.2 |
| 20260903235529 | 92 | 112 | 3.5 | 7.8 | 0.00 | 0.00 | 0.00 | 44 | 1013.3 |
| 20260903235025 | 91 | 225 | 4.3 | 7.8 | 0.00 | 0.00 | 0.00 | 46 | 1013.2 |
| 20260903234521 | 90 | 85 | 4.3 | 9.6 | 0.00 | 0.00 | 0.00 | 47 | 1013.4 |
| 20260903234017 | 90 | 60 | 5.2 | 9.6 | 0.00 | 0.00 | 0.00 | 48 | 1013.4 |
| 20260903233513 | 91 | 48 | 5.2 | 8.7 | 0.00 | 0.00 | 0.00 | 46 | 1013.4 |
| 20260903233013 | 91 | 49 | 4.3 | 8.7 | 0.00 | 0.00 | 0.00 | 46 | 1013.5 |
| 20260903232529 | 91 | 85 | 2.6 | 10.4 | 0.00 | 0.00 | 0.00 | 45 | 1013.5 |
| 20260903232025 | 91 | 120 | 7.0 | 8.7 | 0.00 | 0.00 | 0.00 | 45 | 1013.5 |
| 20260903231521 | 91 | 121 | 6.1 | 8.7 | 0.00 | 0.00 | 0.00 | 45 | 1013.6 |
| 20260903231017 | 91 | 137 | 4.3 | 7.8 | 0.00 | 0.00 | 0.00 | 46 | 1013.5 |
| 20260903230513 | 91 | 54 | 3.5 | 7.8 | 0.00 | 0.00 | 0.00 | 47 | 1013.6 |
| 20260903230040 | 91 | 69 | 1.7 | 6.1 | 0.00 | 0.00 | 0.00 | 44 | 1013.4 |
| 20260903225523 | 91 | 66 | 3.5 | 6.1 | 0.00 | 0.00 | 0.00 | 44 | 1013.5 |
| 20260903225023 | 92 | 67 | 3.5 | 7.8 | 0.00 | 0.00 | 0.00 | 43 | 1013.5 |
| 20260903224519 | 92 | 85 | 4.3 | 7.8 | 0.00 | 0.00 | 0.00 | 43 | 1013.4 |
| 20260903224015 | 92 | 29 | 2.6 | 5.2 | 0.00 | 0.00 | 0.00 | 43 | 1013.5 |
| 20260903223531 | 93 | 29 | 2.6 | 5.2 | 0.00 | 0.00 | 0.00 | 42 | 1013.6 |
| 20260903223027 | 90 | 323 | 1.7 | 5.2 | 0.00 | 0.00 | 0.00 | 45 | 1013.5 |
| 20260903222523 | 91 | 316 | 2.6 | 5.2 | 0.00 | 0.00 | 0.00 | 43 | 1013.6 |
| 20260903222019 | 91 | 291 | 0.9 | 3.5 | 0.00 | 0.00 | 0.00 | 44 | 1013.5 |
| 20260903221518 | 92 | 290 | 1.7 | 6.1 | 0.00 | 0.00 | 0.00 | 43 | 1013.8 |
| 20260903221033 | 92 | 24 | 1.7 | 4.3 | 0.00 | 0.00 | 0.00 | 44 | 1013.8 |
| 20260903220528 | 92 | 27 | 1.7 | 4.3 | 0.00 | 0.00 | 0.00 | 44 | 1013.9 |
| 20260903220037 | 92 | 31 | 0.9 | 4.3 | 0.00 | 0.00 | 0.00 | 43 | 1014.0 |
| 20260903215518 | 92 | 31 | 0.9 | 4.3 | 0.00 | 0.00 | 0.00 | 43 | 1013.9 |
| 20260903215014 | 92 | 33 | 1.7 | 4.3 | 0.00 | 0.00 | 0.00 | 44 | 1013.9 |
| 20260903214530 | 92 | 33 | 1.7 | 6.1 | 0.00 | 0.00 | 0.00 | 43 | 1014.1 |
| 20260903214030 | 93 | 296 | 2.6 | 7.0 | 0.00 | 0.00 | 0.00 | 43 | 1014.1 |
| 20260903213525 | 93 | 296 | 2.6 | 7.0 | 0.00 | 0.00 | 0.00 | 42 | 1014.2 |
| 20260903213021 | 93 | 312 | 2.6 | 6.1 | 0.00 | 0.00 | 0.00 | 43 | 1014.1 |
| 20260903212517 | 92 | 5 | 1.7 | 6.1 | 0.00 | 0.00 | 0.00 | 44 | 1014.0 |
| 20260903212013 | 92 | 5 | 0.9 | 5.2 | 0.00 | 0.00 | 0.00 | 43 | 1014.2 |
| 20260903211529 | 92 | 356 | 2.6 | 5.2 | 0.00 | 0.00 | 0.00 | 44 | 1014.1 |
| 20260903211026 | 91 | 330 | 2.6 | 7.0 | 0.00 | 0.00 | 0.00 | 45 | 1014.3 |
| 20260903210526 | 93 | 269 | 1.7 | 7.0 | 0.00 | 0.00 | 0.00 | 43 | 1014.2 |
| 20260903210033 | 94 | 288 | 1.7 | 7.0 | 0.00 | 0.00 | 0.00 | 42 | 1014.2 |
| 20260903205515 | 92 | 330 | 0.9 | 2.6 | 0.00 | 0.00 | 0.00 | 43 | 1014.4 |
| 20260903205029 | 90 | 330 | 1.7 | 4.3 | 0.00 | 0.00 | 0.00 | 44 | 1014.5 |
| 20260903204525 | 90 | 329 | 0.9 | 5.2 | 0.00 | 0.00 | 0.00 | 45 | 1014.8 |
| 20260903204021 | 92 | 329 | 0.9 | 5.2 | 0.00 | 0.00 | 0.00 | 43 | 1014.8 |
| 20260903203517 | 92 | 329 | 1.7 | 4.3 | 0.00 | 0.00 | 0.00 | 44 | 1014.7 |
| 20260903203017 | 92 | 329 | 2.6 | 4.3 | 0.00 | 0.00 | 0.00 | 43 | 1014.9 |
| 20260903202513 | 91 | 325 | 2.6 | 4.3 | 0.00 | 0.00 | 0.00 | 43 | 1014.9 |
| 20260903202029 | 91 | 312 | 2.6 | 4.3 | 0.00 | 0.00 | 0.00 | 44 | 1015.0 |
| 20260903201525 | 92 | 259 | 1.7 | 3.5 | 0.00 | 0.00 | 0.00 | 43 | 1015.2 |
| 20260903201021 | 91 | 257 | 0.9 | 3.5 | 0.00 | 0.00 | 0.00 | 44 | 1015.2 |
| 20260903200517 | 90 | 224 | 1.7 | 4.3 | 0.00 | 0.00 | 0.00 | 46 | 1015.3 |
| 20260903200045 | 91 | 224 | 1.7 | 4.3 | 0.00 | 0.00 | 0.00 | 45 | 1015.4 |
| 20260903195527 | 90 | 121 | 2.6 | 5.2 | 0.00 | 0.00 | 0.00 | 45 | 1015.5 |
| 20260903195027 | 91 | 116 | 3.5 | 5.2 | 0.00 | 0.00 | 0.00 | 45 | 1015.5 |
| 20260903194523 | 89 | 79 | 1.7 | 7.8 | 0.00 | 0.00 | 0.00 | 47 | 1015.7 |
| 20260903194019 | 89 | 79 | 2.6 | 7.8 | 0.00 | 0.00 | 0.00 | 47 | 1015.9 |
| 20260903193515 | 89 | 106 | 3.5 | 7.0 | 0.00 | 0.00 | 0.00 | 47 | 1015.9 |
| 20260903193031 | 89 | 102 | 3.5 | 7.0 | 0.00 | 0.00 | 0.00 | 46 | 1015.9 |
| 20260903192527 | 91 | 148 | 2.6 | 7.0 | 0.00 | 0.00 | 0.00 | 46 | 1016.0 |
| 20260903192023 | 90 | 96 | 2.6 | 6.1 | 0.00 | 0.00 | 0.00 | 46 | 1016.1 |
| 20260903191523 | 89 | 88 | 2.6 | 6.1 | 0.00 | 0.00 | 0.00 | 46 | 1016.2 |
| 20260903191019 | 90 | 71 | 0.9 | 3.5 | 0.00 | 0.00 | 0.00 | 46 | 1016.3 |
| 20260903190515 | 91 | 256 | 1.7 | 3.5 | 0.00 | 0.00 | 0.00 | 45 | 1016.3 |
| 20260903190042 | 91 | 256 | 1.7 | 3.5 | 0.00 | 0.00 | 0.00 | 47 | 1016.4 |
| 20260903185524 | 90 | 233 | 0.9 | 4.3 | 0.00 | 0.00 | 0.00 | 47 | 1016.5 |
| 20260903185020 | 90 | 233 | 0.9 | 4.3 | 0.00 | 0.00 | 0.00 | 47 | 1016.7 |
| 20260903184516 | 89 | 233 | 1.7 | 4.3 | 0.00 | 0.00 | 0.00 | 49 | 1016.9 |
| 20260903184016 | 88 | 220 | 1.7 | 5.2 | 0.00 | 0.00 | 0.00 | 50 | 1016.8 |
| 20260903183532 | 88 | 218 | 3.5 | 7.8 | 0.00 | 0.00 | 0.00 | 49 | 1017.0 |
| 20260903183028 | 87 | 93 | 2.6 | 7.8 | 0.00 | 0.00 | 0.00 | 52 | 1017.1 |
| 20260903182524 | 87 | 106 | 3.5 | 7.0 | 0.00 | 0.00 | 0.00 | 50 | 1017.2 |
| 20260903182020 | 87 | 116 | 2.6 | 7.0 | 0.00 | 0.00 | 0.00 | 49 | 1017.3 |
| 20260903181516 | 89 | 220 | 1.7 | 4.3 | 0.00 | 0.00 | 0.00 | 52 | 1017.4 |
| 20260903181032 | 86 | 219 | 1.7 | 4.3 | 0.00 | 0.00 | 0.00 | 52 | 1017.5 |
| 20260903180532 | 85 | 219 | 1.7 | 4.3 | 0.00 | 0.00 | 0.00 | 51 | 1017.5 |
| 20260903180039 | 86 | 219 | 1.7 | 4.3 | 0.00 | 0.00 | 0.00 | 52 | 1017.5 |
| 20260903175521 | 85 | 72 | 1.7 | 5.2 | 0.00 | 0.00 | 0.00 | 55 | 1017.7 |
| 20260903175016 | 85 | 72 | 2.6 | 7.0 | 0.00 | 0.00 | 0.00 | 55 | 1017.6 |
| 20260903174532 | 85 | 72 | 1.7 | 7.0 | 0.00 | 0.00 | 0.00 | 56 | 1017.7 |
| 20260903174028 | 84 | 69 | 1.7 | 6.1 | 0.00 | 0.00 | 0.00 | 56 | 1017.6 |
| 20260903173524 | 84 | 66 | 3.5 | 6.1 | 0.00 | 0.00 | 0.00 | 57 | 1017.7 |
| 20260903173024 | 85 | 102 | 2.6 | 5.2 | 0.00 | 0.00 | 0.00 | 56 | 1017.7 |